DW4915 Mazarete ES current weather conditions

sailwx.info

Wind from 029

Air temperature 14.4° C
Dewpoint 14.4° C

Last reported at 2017-Jan-22 06:51 UTC.
Time now 2017-Jan-22 08:05 UTC

Location: N 40°58' W 002°11'.
View on Google Maps.

See reports from other nearby stations

  
Tides and Currents Weather Stations Pressure Air Temp Water Temp Dewpoint Dewpoint Depression Visibility Wind Speed Wind Dir Waves Ship Positions
date/time (UTC)wind fromknots sea level pressurealtimeterstation pressurevisibilityair tempwater tempwave heightnotes
2017-Jan-22 07:46 029 15.0
2017-Jan-22 07:41 029 15.0
2017-Jan-22 07:36 029 15.0
2017-Jan-22 07:31 029 15.0
2017-Jan-22 07:26 029 15.0
2017-Jan-22 07:21 029 14.4
2017-Jan-22 07:16 029 14.4
2017-Jan-22 07:11 029 14.4
2017-Jan-22 07:06 030 14.4
2017-Jan-22 07:01 029 14.4
2017-Jan-22 06:56 031 14.4
2017-Jan-22 06:51 029 14.4
2017-Jan-22 06:46 029 15.0
2017-Jan-22 06:41 029 15.0
2017-Jan-22 06:36 029 15.0
2017-Jan-22 06:31 030 15.6
2017-Jan-22 06:26 030 16.1
2017-Jan-22 06:21 029 16.1
2017-Jan-22 06:16 029 16.1
2017-Jan-22 06:11 030 16.1
2017-Jan-22 06:06 029 16.1
2017-Jan-22 06:01 029 16.1
2017-Jan-22 05:56 029 16.7
2017-Jan-22 05:51 029 16.7
2017-Jan-22 05:46 029 16.7
2017-Jan-22 05:41 029 16.7
2017-Jan-22 05:36 032 16.7
2017-Jan-22 05:31 031 16.7
2017-Jan-22 05:26 031 17.2
2017-Jan-22 05:21 040 17.2
2017-Jan-22 05:16 017 17.2
2017-Jan-22 05:11 031 17.2
2017-Jan-22 05:06 029 17.2
2017-Jan-22 05:01 023 16.7
2017-Jan-22 04:56 035 16.7
2017-Jan-22 04:51 038 16.7
2017-Jan-22 04:46 042 16.7
2017-Jan-22 04:41 044 17.2
2017-Jan-22 04:36 025 17.2
2017-Jan-22 04:31 035 17.8
2017-Jan-22 04:26 011 17.8
2017-Jan-22 04:21 002 17.8
2017-Jan-22 04:16 347 17.8
2017-Jan-22 04:11 003 17.8
2017-Jan-22 04:06 349 17.8
2017-Jan-22 04:01 004 17.8
2017-Jan-22 03:56 355 17.8
2017-Jan-22 03:51 006 17.8
2017-Jan-22 03:46 354 17.8
2017-Jan-22 03:41 354 18.3
2017-Jan-22 03:36 350 17.8
2017-Jan-22 03:31 348 17.8
2017-Jan-22 03:26 348 17.8
2017-Jan-22 03:16 013 17.8
2017-Jan-22 03:11 352 17.8
2017-Jan-22 03:06 339 17.8
2017-Jan-22 03:01 010 17.8
2017-Jan-22 02:56 349 17.8
2017-Jan-22 02:51 344 17.8
2017-Jan-22 02:46 347 17.8
2017-Jan-22 02:41 355 17.8
2017-Jan-22 02:36 004 17.8
2017-Jan-22 02:31 352 17.8
2017-Jan-22 02:26 009 17.8
2017-Jan-22 02:21 001 17.8
2017-Jan-22 02:16 002 17.8
2017-Jan-22 02:11 345 17.8
2017-Jan-22 02:06 355 17.2
2017-Jan-22 02:01 360 17.2
2017-Jan-22 01:56 001 17.2
2017-Jan-22 01:51 013 17.2
2017-Jan-22 01:46 352 17.2
2017-Jan-22 01:41 355 17.2
2017-Jan-22 01:31 353 16.7
2017-Jan-22 01:26 357 16.7
2017-Jan-22 01:21 004 16.7
2017-Jan-22 01:16 343 16.7
2017-Jan-22 01:11 031 16.7
2017-Jan-22 01:06 002 16.7
2017-Jan-22 01:01 011 16.7
2017-Jan-22 00:56 006 16.7
2017-Jan-22 00:51 008 16.1
2017-Jan-22 00:46 017 16.1
2017-Jan-22 00:41 002 16.1
2017-Jan-22 00:36 012 16.1
2017-Jan-22 00:31 014 16.1
2017-Jan-22 00:26 030 16.1
2017-Jan-22 00:21 026 16.1
2017-Jan-22 00:16 035 16.1
2017-Jan-22 00:06 067 16.1
2017-Jan-22 00:01 031 16.1
2017-Jan-21 23:56 058 16.1
2017-Jan-21 23:51 060 16.1
2017-Jan-21 23:46 060 16.1
2017-Jan-21 23:36 060 16.1
2017-Jan-21 23:31 065 16.1
2017-Jan-21 23:26 052 16.1
2017-Jan-21 23:21 066 16.1
2017-Jan-21 23:16 052 16.1
2017-Jan-21 23:11 050 16.1
2017-Jan-21 23:06 071 16.1
2017-Jan-21 23:01 056 16.7
2017-Jan-21 22:56 050 16.7
2017-Jan-21 22:51 036 17.2
2017-Jan-21 22:46 020 17.2
2017-Jan-21 22:41 009 17.2
2017-Jan-21 22:31 007 16.7
2017-Jan-21 22:26 052 16.7
2017-Jan-21 22:21 014 16.7
2017-Jan-21 22:16 005 16.7
2017-Jan-21 22:11 001 16.7
2017-Jan-21 22:06 359 16.7
2017-Jan-21 22:01 360 16.1
2017-Jan-21 21:56 013 15.6
2017-Jan-21 21:46 023 15.0
2017-Jan-21 21:41 023 15.0
2017-Jan-21 21:36 023 15.0
2017-Jan-21 21:31 021 15.0
2017-Jan-21 21:26 016 15.0
2017-Jan-21 21:21 360 15.6
2017-Jan-21 21:16 356 15.6
2017-Jan-21 21:11 356 15.6
2017-Jan-21 21:06 355 16.1
2017-Jan-21 21:01 356 16.1
2017-Jan-21 20:56 358 16.1
2017-Jan-21 20:51 034 16.1
2017-Jan-21 20:46 036 15.6
2017-Jan-21 20:41 034 16.1
2017-Jan-21 20:36 034 15.6
2017-Jan-21 20:31 036 15.6
2017-Jan-21 20:26 040 15.6
2017-Jan-21 20:21 040 15.6
2017-Jan-21 20:16 040 15.6
2017-Jan-21 20:11 040 16.1
2017-Jan-21 20:06 040 16.1
2017-Jan-21 20:01 040 16.1
2017-Jan-21 19:56 040 16.1
2017-Jan-21 19:51 036 16.1
2017-Jan-21 19:46 037 16.1
2017-Jan-21 19:41 038 16.1
2017-Jan-21 19:36 040 16.1
2017-Jan-21 19:31 040 16.1
2017-Jan-21 19:21 040 16.1
2017-Jan-21 19:16 040 16.1
2017-Jan-21 19:11 039 16.1
2017-Jan-21 19:06 041 16.1
2017-Jan-21 19:01 043 16.1
2017-Jan-21 18:56 043 16.1
2017-Jan-21 18:51 042 16.1
2017-Jan-21 18:46 035 16.1
2017-Jan-21 18:41 032 16.1
2017-Jan-21 18:26 032 16.1
2017-Jan-21 18:21 034 16.1
2017-Jan-21 18:16 034 16.1
2017-Jan-21 18:11 031 16.1
2017-Jan-21 18:06 031 16.1
2017-Jan-21 18:01 031 16.7
2017-Jan-21 17:56 031 16.7
2017-Jan-21 17:51 033 16.7
2017-Jan-21 17:46 032 16.7
2017-Jan-21 17:41 031 16.7
2017-Jan-21 17:36 033 16.7
2017-Jan-21 17:31 033 17.2
2017-Jan-21 17:26 033 17.2
2017-Jan-21 17:21 034 17.8
2017-Jan-21 17:16 034 18.3
2017-Jan-21 17:06 034 18.9
2017-Jan-21 17:01 034 19.4
2017-Jan-21 16:56 034 20.0
2017-Jan-21 16:51 034 20.0
2017-Jan-21 16:46 034 20.0
2017-Jan-21 16:41 033 20.0
2017-Jan-21 16:36 029 20.6
2017-Jan-21 16:31 031 20.6
2017-Jan-21 16:26 031 20.6
2017-Jan-21 16:21 010 20.6
2017-Jan-21 16:16 019 21.1
2017-Jan-21 16:11 014 21.1
2017-Jan-21 16:06 050 21.7
2017-Jan-21 16:01 051 21.7
2017-Jan-21 15:56 029 22.2
2017-Jan-21 15:51 055 22.2
2017-Jan-21 15:46 063 22.2
2017-Jan-21 15:41 055 22.2
2017-Jan-21 15:36 056 22.2
2017-Jan-21 15:31 065 22.2
2017-Jan-21 15:26 054 22.2
2017-Jan-21 15:21 056 22.2
2017-Jan-21 15:16 045 22.2
2017-Jan-21 15:11 064 22.2
2017-Jan-21 15:06 082 22.2
2017-Jan-21 15:01 104 22.2
2017-Jan-21 14:56 066 21.7
2017-Jan-21 14:36 092 22.2
2017-Jan-21 14:31 068 21.7
2017-Jan-21 14:26 075 21.7
2017-Jan-21 14:21 080 21.7
2017-Jan-21 14:16 106 21.7
2017-Jan-21 14:11 079 21.1
2017-Jan-21 14:06 087 21.1
2017-Jan-21 14:01 065 21.1
2017-Jan-21 13:56 090 21.1
2017-Jan-21 13:51 074 21.1
2017-Jan-21 13:46 083 21.1
2017-Jan-21 13:36 091 20.6
2017-Jan-21 13:31 109 20.6
2017-Jan-21 13:26 063 20.6
2017-Jan-21 13:21 034 20.6
2017-Jan-21 13:16 085 20.6
2017-Jan-21 13:11 088 20.0
2017-Jan-21 13:06 054 20.0
2017-Jan-21 13:01 071 20.6
2017-Jan-21 12:56 060 20.6
2017-Jan-21 12:51 082 20.0
2017-Jan-21 12:46 088 20.0
2017-Jan-21 12:41 092 20.0
2017-Jan-21 12:36 088 20.0
2017-Jan-21 12:31 093 19.4
2017-Jan-21 12:26 073 19.4
2017-Jan-21 12:21 080 19.4
2017-Jan-21 12:16 079 18.9
2017-Jan-21 12:11 083 18.9
2017-Jan-21 12:06 073 18.9
2017-Jan-21 12:01 074 18.3
2017-Jan-21 11:56 094 18.3
2017-Jan-21 11:51 071 18.3
2017-Jan-21 11:46 073 18.3
2017-Jan-21 11:41 067 17.8
2017-Jan-21 11:36 076 17.8
2017-Jan-21 11:31 061 17.8
2017-Jan-21 11:26 087 17.8
2017-Jan-21 11:21 069 17.8
2017-Jan-21 11:11 077 17.2
2017-Jan-21 11:06 072 17.8
2017-Jan-21 11:01 092 18.3
2017-Jan-21 10:56 062 18.3
2017-Jan-21 10:51 078 17.8
2017-Jan-21 10:46 070 17.2
2017-Jan-21 10:41 096 17.2
2017-Jan-21 10:36 091 16.7
2017-Jan-21 10:31 067 16.7
2017-Jan-21 10:26 065 16.7
2017-Jan-21 10:21 090 16.7
2017-Jan-21 10:16 084 16.1
2017-Jan-21 10:11 086 16.7
2017-Jan-21 10:06 078 16.7
2017-Jan-21 10:01 075 17.2
2017-Jan-21 09:56 065 16.7
2017-Jan-21 09:51 073 16.7
2017-Jan-21 09:46 078 16.1
2017-Jan-21 09:41 074 16.1
2017-Jan-21 09:36 086 16.1
2017-Jan-21 09:31 071 16.1
2017-Jan-21 09:26 069 16.1
2017-Jan-21 09:21 073 16.1
2017-Jan-21 09:16 069 15.6
2017-Jan-21 09:11 077 15.6
2017-Jan-21 09:06 072 15.6
2017-Jan-21 09:01 086 15.6
2017-Jan-21 08:56 073 15.6
2017-Jan-21 08:51 074 15.6
2017-Jan-21 08:46 083 15.6
2017-Jan-21 08:41 079 15.6
2017-Jan-21 08:36 076 15.0
2017-Jan-21 08:31 081 15.0
2017-Jan-21 08:26 076 15.0
2017-Jan-21 08:21 093 15.0
2017-Jan-21 08:16 093 15.0
2017-Jan-21 08:11 077 15.0
2017-Jan-21 08:06 086 15.0
2017-Jan-21 08:01 090 15.0
2017-Jan-21 07:56 083 15.0
2017-Jan-21 07:51 096 15.0
2017-Jan-21 07:46 073 15.0
2017-Jan-21 07:41 074 15.0
2017-Jan-21 07:36 057 15.0
2017-Jan-21 07:31 059 15.0
2017-Jan-21 07:26 077 15.0
2017-Jan-21 07:21 058 15.0
2017-Jan-21 07:16 074 15.0
2017-Jan-21 07:11 092 15.0
2017-Jan-21 07:06 067 15.0
2017-Jan-21 07:01 071 15.0
2017-Jan-21 06:56 078 15.0
2017-Jan-21 06:51 079 15.0
2017-Jan-21 06:46 076 15.0
2017-Jan-21 06:41 073 15.0
2017-Jan-21 06:36 078 15.0
2017-Jan-21 06:31 079 15.0
2017-Jan-21 06:26 079 15.0
2017-Jan-21 06:21 069 15.0
2017-Jan-21 06:16 069 15.0
2017-Jan-21 06:11 073 15.0
2017-Jan-21 06:06 069 15.0
2017-Jan-21 06:01 072 15.0
2017-Jan-21 05:56 085 15.0
2017-Jan-21 05:51 077 15.0
2017-Jan-21 05:46 065 14.4
2017-Jan-21 05:41 084 14.4
2017-Jan-21 05:36 077 14.4
2017-Jan-21 05:31 071 14.4
2017-Jan-21 05:26 075 14.4
2017-Jan-21 05:21 084 14.4
2017-Jan-21 05:16 069 14.4
2017-Jan-21 05:11 077 14.4
2017-Jan-21 05:06 085 14.4
2017-Jan-21 05:01 069 14.4
2017-Jan-21 04:56 073 14.4
2017-Jan-21 04:51 065 14.4
2017-Jan-21 04:46 060 14.4
2017-Jan-21 04:41 067 14.4
2017-Jan-21 04:36 063 15.0
2017-Jan-21 04:31 069 15.0
2017-Jan-21 04:26 087 15.0
2017-Jan-21 04:21 068 15.0
2017-Jan-21 04:16 070 15.0
2017-Jan-21 04:11 068 15.0
2017-Jan-21 04:06 069 15.0
2017-Jan-21 04:01 072 15.0
2017-Jan-21 03:56 066 15.0
2017-Jan-21 03:51 076 15.0
2017-Jan-21 03:46 063 15.0
2017-Jan-21 03:41 068 15.0
2017-Jan-21 03:36 079 14.4
2017-Jan-21 03:31 056 14.4
2017-Jan-21 03:26 063 14.4
2017-Jan-21 03:21 059 14.4
2017-Jan-21 03:16 071 14.4
2017-Jan-21 03:11 062 14.4
2017-Jan-21 03:06 076 14.4
2017-Jan-21 03:01 052 14.4
2017-Jan-21 02:51 058 14.4
2017-Jan-21 02:46 042 14.4
2017-Jan-21 02:41 054 14.4
2017-Jan-21 02:36 064 14.4
2017-Jan-21 02:31 073 14.4
2017-Jan-21 02:26 077 14.4
2017-Jan-21 02:21 075 14.4
2017-Jan-21 02:16 073 14.4
2017-Jan-21 02:11 071 14.4
2017-Jan-21 02:06 061 14.4
2017-Jan-21 01:56 079 14.4
2017-Jan-21 01:51 063 14.4
2017-Jan-21 01:46 061 14.4
2017-Jan-21 01:41 065 14.4
2017-Jan-21 01:36 061 14.4
2017-Jan-21 01:31 023 14.4
2017-Jan-21 01:26 067 15.0
2017-Jan-21 01:21 081 15.0
2017-Jan-21 01:16 060 15.0
2017-Jan-21 01:11 090 14.4
2017-Jan-21 01:06 070 14.4
2017-Jan-21 01:01 057 14.4
2017-Jan-21 00:56 064 15.0
2017-Jan-21 00:51 059 15.0
2017-Jan-21 00:46 063 15.0
2017-Jan-21 00:41 077 15.0
2017-Jan-21 00:36 074 15.0
2017-Jan-21 00:31 043 15.0
2017-Jan-21 00:26 078 14.4
2017-Jan-21 00:21 061 14.4
2017-Jan-21 00:16 078 14.4
2017-Jan-21 00:11 063 14.4
2017-Jan-21 00:06 064 14.4
2017-Jan-21 00:01 065 14.4
2017-Jan-20 23:56 071 14.4
2017-Jan-20 23:51 074 14.4
2017-Jan-20 23:46 065 14.4
2017-Jan-20 23:41 094 14.4
2017-Jan-20 23:36 058 14.4
2017-Jan-20 23:31 048 14.4
2017-Jan-20 23:26 072 14.4
2017-Jan-20 23:21 079 14.4
2017-Jan-20 23:16 076 14.4
2017-Jan-20 23:11 067 14.4
2017-Jan-20 23:06 076 14.4
2017-Jan-20 23:01 060 14.4
2017-Jan-20 22:56 064 14.4
2017-Jan-20 22:51 067 14.4
2017-Jan-20 22:46 083 14.4
2017-Jan-20 22:41 079 14.4
2017-Jan-20 22:36 070 14.4
2017-Jan-20 22:31 054 14.4
2017-Jan-20 22:26 065 14.4
2017-Jan-20 22:21 065 14.4
2017-Jan-20 22:16 062 14.4
2017-Jan-20 22:11 061 14.4
2017-Jan-20 22:06 069 14.4
2017-Jan-20 22:01 079 14.4
2017-Jan-20 21:56 055 14.4
2017-Jan-20 21:51 056 14.4
2017-Jan-20 21:46 058 14.4
2017-Jan-20 21:41 070 14.4
2017-Jan-20 21:36 067 14.4
2017-Jan-20 21:31 060 14.4
2017-Jan-20 21:26 059 14.4
2017-Jan-20 21:21 069 14.4
2017-Jan-20 21:16 067 14.4
2017-Jan-20 21:11 082 14.4
2017-Jan-20 21:06 089 14.4
2017-Jan-20 21:01 085 14.4
2017-Jan-20 20:56 082 14.4
2017-Jan-20 20:51 104 14.4
2017-Jan-20 20:46 077 14.4
2017-Jan-20 20:41 077 14.4
2017-Jan-20 20:36 075 14.4
2017-Jan-20 20:31 077 14.4
2017-Jan-20 20:26 075 15.0
2017-Jan-20 20:21 063 15.0
2017-Jan-20 20:16 069 15.0
2017-Jan-20 20:11 055 15.0
2017-Jan-20 20:06 078 15.0
2017-Jan-20 20:01 074 15.0
2017-Jan-20 19:56 088 15.0
2017-Jan-20 19:51 079 14.4
2017-Jan-20 19:46 069 14.4
2017-Jan-20 19:41 069 14.4
2017-Jan-20 19:36 091 14.4
2017-Jan-20 19:31 063 14.4
2017-Jan-20 19:26 076 14.4
2017-Jan-20 19:21 063 14.4
2017-Jan-20 19:16 063 14.4
2017-Jan-20 19:11 072 14.4
2017-Jan-20 19:06 077 14.4
2017-Jan-20 19:01 069 14.4
2017-Jan-20 18:56 095 14.4
2017-Jan-20 18:51 100 14.4
2017-Jan-20 18:46 077 14.4
2017-Jan-20 18:41 079 14.4
2017-Jan-20 18:36 079 14.4
2017-Jan-20 18:31 070 14.4
2017-Jan-20 18:26 070 14.4
2017-Jan-20 18:21 096 14.4
2017-Jan-20 18:16 079 14.4
2017-Jan-20 18:11 069 14.4
2017-Jan-20 18:06 068 14.4
2017-Jan-20 18:01 073 14.4
2017-Jan-20 17:56 081 14.4
2017-Jan-20 17:51 064 14.4
2017-Jan-20 17:46 073 14.4
2017-Jan-20 17:41 078 14.4
2017-Jan-20 17:36 067 14.4
2017-Jan-20 17:31 068 14.4
2017-Jan-20 17:26 061 14.4
2017-Jan-20 17:21 085 14.4
2017-Jan-20 17:16 076 14.4
2017-Jan-20 17:11 058 14.4
2017-Jan-20 17:06 067 14.4
2017-Jan-20 17:01 073 14.4
2017-Jan-20 16:56 069 14.4
2017-Jan-20 16:51 082 14.4
2017-Jan-20 16:46 082 14.4
2017-Jan-20 16:41 082 14.4
2017-Jan-20 16:36 080 14.4
2017-Jan-20 16:31 071 14.4
2017-Jan-20 16:26 071 14.4
2017-Jan-20 16:01 091 14.4
2017-Jan-20 15:56 060 14.4
2017-Jan-20 15:51 068 14.4
2017-Jan-20 15:46 066 14.4
2017-Jan-20 15:41 084 14.4
2017-Jan-20 15:36 079 14.4
2017-Jan-20 15:31 069 14.4
2017-Jan-20 15:26 071 14.4
2017-Jan-20 15:21 073 14.4
2017-Jan-20 15:11 065 14.4
2017-Jan-20 15:06 074 14.4
2017-Jan-20 15:01 067 14.4
2017-Jan-20 14:56 070 14.4
2017-Jan-20 14:51 066 14.4
2017-Jan-20 14:46 053 14.4
2017-Jan-20 14:41 065 15.0
2017-Jan-20 14:36 054 15.0
2017-Jan-20 14:31 074 15.0
2017-Jan-20 14:26 068 15.0
2017-Jan-20 14:21 064 15.0
2017-Jan-20 14:16 069 15.0
2017-Jan-20 14:11 075 15.0
2017-Jan-20 14:06 071 15.0
2017-Jan-20 14:01 072 15.0
2017-Jan-20 13:56 066 15.0
2017-Jan-20 13:51 085 15.0
2017-Jan-20 13:46 069 15.0
2017-Jan-20 13:41 079 15.0
2017-Jan-20 13:31 065 15.0
2017-Jan-20 13:26 092 15.0
2017-Jan-20 13:21 081 15.0
2017-Jan-20 13:16 078 15.0
2017-Jan-20 13:11 081 15.0
2017-Jan-20 13:06 069 15.0
2017-Jan-20 13:01 070 15.0
2017-Jan-20 12:56 058 15.0
2017-Jan-20 12:46 063 15.0
2017-Jan-20 12:41 071 15.0
2017-Jan-20 12:36 069 15.0
2017-Jan-20 12:31 071 14.4
2017-Jan-20 12:26 071 14.4
2017-Jan-20 12:21 077 14.4
2017-Jan-20 12:16 065 14.4
2017-Jan-20 12:11 060 14.4
2017-Jan-20 12:06 066 14.4
2017-Jan-20 11:56 073 14.4
2017-Jan-20 11:51 076 13.9
2017-Jan-20 11:46 071 13.9
2017-Jan-20 11:41 074 13.9
2017-Jan-20 11:36 071 13.9
2017-Jan-20 11:31 083 13.9
2017-Jan-20 11:26 085 13.9
2017-Jan-20 11:21 062 13.3
2017-Jan-20 11:16 078 13.3
2017-Jan-20 11:11 075 13.3
2017-Jan-20 11:06 085 13.3
2017-Jan-20 11:01 069 13.3
2017-Jan-20 10:56 066 13.3
2017-Jan-20 10:51 069 13.3
2017-Jan-20 10:46 051 13.9
2017-Jan-20 10:41 076 13.9
2017-Jan-20 10:36 067 13.9
2017-Jan-20 10:31 081 13.9
2017-Jan-20 10:26 063 13.9
2017-Jan-20 10:21 071 13.9
2017-Jan-20 10:16 080 13.9
2017-Jan-20 10:11 065 13.9
2017-Jan-20 10:06 068 13.9
2017-Jan-20 10:01 061 13.9
2017-Jan-20 09:56 066 13.9
2017-Jan-20 09:51 069 13.3
2017-Jan-20 09:46 064 13.3
2017-Jan-20 09:41 067 13.3
2017-Jan-20 09:36 065 13.3
2017-Jan-20 09:31 064 13.3
2017-Jan-20 09:26 069 12.8
2017-Jan-20 09:21 048 12.8
2017-Jan-20 09:16 083 12.8
2017-Jan-20 09:11 061 12.8
2017-Jan-20 09:06 062 12.8
2017-Jan-20 09:01 065 12.8
2017-Jan-20 08:56 058 12.8
2017-Jan-20 08:51 056 12.8
2017-Jan-20 08:46 071 12.8
2017-Jan-20 08:41 061 12.8
2017-Jan-20 08:36 058 12.8
2017-Jan-20 08:31 050 12.8
2017-Jan-20 08:26 061 12.8
2017-Jan-20 08:21 040 12.8
2017-Jan-20 08:16 050 12.8
2017-Jan-20 08:11 059 12.8
2017-Jan-20 08:06 051 12.8
2017-Jan-20 08:01 060 12.8